カタログに戻る

COSMOS 917 DEB

LostHEO
NORAD 27886·DEBRIS·🇷🇺 Russia

打ち上げ Jun 16, 1977 から Plesetsk Cosmodrome

Loading…

次のパス (今後24時間)

TLE

古いSource: Space-Track

元期: Jul 19, 2018, 05:12 UTC

1 27886U 77047J   18200.21715231 +.00000148 +00000-0 +10000-3 0  9996
2 27886 068.4678 086.3046 5754738 039.4511 350.8934 01.94173706124277

AllMySatでCOSMOS 917 DEBをリアルタイム追跡

Download on the App Store